Location: Gro�bocka
(50.8204°N, 11.9702°E)
Time: 06:02:31
(UTC+00:00)

COSMO-SKYMED 1 - Pass Details

Date: 29 October 2020
Orbit: 621 x 623 km, 97.9° (Epoch: 01 December)

Event Time Altitude Azimuth Distance (km) Brightness Sun altitude
Rises 17:00:03 0° 18° (NNE) 2,918 5.8 -11.3°
Reaches altitude 10° 17:02:20 10° 25° (NNE) 2,006 4.9 -11.6°
Maximum altitude 17:06:32 46° 99° (E) 838 2.8 -12.3°
Drops below altitude 10° 17:10:43 10° 173° (S) 1,988 5.2 -13.0°
Sets 17:12:58 0° 180° (S) 2,889 6.1 -13.3°
